| time (UTC) | temp F | wind direction | speed MPH | gust MPH | rain 1hr in | rain 24hr in | rain mn in | humidity % | barometer mb |
| 20260509224545 | 56 | 265 | 2.0 | 19.0 | 0.11 | 0.18 | 0.11 | 85 | 1004.1 |
| 20260509224048 | 58 | 339 | 4.0 | 19.0 | 0.05 | 0.12 | 0.05 | 79 | 1004.3 |
| 20260509223746 | 62 | 300 | 3.0 | 15.0 | 0.01 | 0.08 | 0.01 | 73 | 1004.4 |
| 20260509223017 | 65 | 318 | 1.0 | 10.0 | 0.00 | 0.07 | 0.00 | 70 | 1004.0 |
| 20260509222453 | 66 | 171 | 4.0 | 14.0 | 0.00 | 0.07 | 0.00 | 66 | 1002.4 |
| 20260509221952 | 67 | 173 | 5.0 | 14.0 | 0.00 | 0.07 | 0.00 | 62 | 1002.0 |
| 20260509221442 | 67 | 163 | 4.0 | 10.0 | 0.00 | 0.07 | 0.00 | 60 | 1002.1 |
| 20260509220941 | 68 | 175 | 5.0 | 13.0 | 0.00 | 0.07 | 0.00 | 60 | 1002.0 |
| 20260509220413 | 68 | 180 | 5.0 | 13.0 | 0.00 | 0.07 | 0.00 | 58 | 1002.0 |
| 20260509215916 | 68 | 189 | 5.0 | 15.0 | 0.00 | 0.07 | 0.00 | 59 | 1002.1 |
| 20260509215400 | 68 | 188 | 5.0 | 15.0 | 0.00 | 0.07 | 0.00 | 58 | 1002.2 |
| 20260509214859 | 68 | 182 | 4.0 | 12.0 | 0.00 | 0.07 | 0.00 | 60 | 1002.1 |
| 20260509214332 | 68 | 214 | 6.0 | 14.0 | 0.00 | 0.07 | 0.00 | 59 | 1001.8 |
| 20260509214027 | 68 | 170 | 8.0 | 14.0 | 0.00 | 0.07 | 0.00 | 59 | 1001.8 |
| 20260509213515 | 69 | 204 | 8.0 | 23.0 | 0.00 | 0.07 | 0.00 | 59 | 1001.7 |
| 20260509212752 | 69 | 169 | 8.0 | 23.0 | 0.00 | 0.07 | 0.00 | 59 | 1001.7 |
| 20260509212256 | 69 | 172 | 6.0 | 12.0 | 0.00 | 0.07 | 0.00 | 60 | 1001.8 |
| 20260509211739 | 68 | 169 | 7.0 | 17.0 | 0.00 | 0.07 | 0.00 | 60 | 1001.9 |
| 20260509211242 | 69 | 181 | 8.0 | 17.0 | 0.00 | 0.07 | 0.00 | 59 | 1001.7 |
| 20260509210723 | 69 | 175 | 7.0 | 13.0 | 0.00 | 0.07 | 0.00 | 59 | 1002.1 |
| 20260509210214 | 69 | 190 | 6.0 | 12.0 | 0.00 | 0.07 | 0.00 | 58 | 1002.0 |
| 20260509205717 | 69 | 210 | 5.0 | 13.0 | 0.00 | 0.07 | 0.00 | 58 | 1002.3 |
| 20260509205209 | 69 | 171 | 5.0 | 13.0 | 0.00 | 0.07 | 0.00 | 57 | 1002.3 |
| 20260509204928 | 69 | 180 | 6.0 | 16.0 | 0.00 | 0.07 | 0.00 | 57 | 1002.5 |
| 20260509204152 | 69 | 180 | 7.0 | 16.0 | 0.00 | 0.07 | 0.00 | 57 | 1002.4 |
| 20260509203921 | 68 | 177 | 7.0 | 12.0 | 0.00 | 0.07 | 0.00 | 59 | 1002.4 |
| 20260509203128 | 68 | 180 | 7.0 | 16.0 | 0.00 | 0.07 | 0.00 | 60 | 1002.6 |
| 20260509202628 | 68 | 205 | 7.0 | 16.0 | 0.00 | 0.07 | 0.00 | 60 | 1002.6 |
| 20260509202113 | 68 | 186 | 7.0 | 13.0 | 0.00 | 0.07 | 0.00 | 59 | 1002.7 |
| 20260509201606 | 68 | 193 | 6.0 | 14.0 | 0.00 | 0.07 | 0.00 | 60 | 1003.0 |
| 20260509201106 | 69 | 174 | 6.0 | 14.0 | 0.00 | 0.07 | 0.00 | 60 | 1003.1 |
| 20260509200604 | 69 | 182 | 4.0 | 14.0 | 0.00 | 0.07 | 0.00 | 60 | 1003.0 |
| 20260509200104 | 69 | 191 | 5.0 | 14.0 | 0.00 | 0.07 | 0.00 | 61 | 1003.0 |
| 20260509195604 | 69 | 223 | 5.0 | 14.0 | 0.00 | 0.07 | 0.00 | 59 | 1003.0 |
| 20260509195324 | 69 | 188 | 5.0 | 15.0 | 0.00 | 0.07 | 0.00 | 59 | 1003.0 |
| 20260509194534 | 68 | 170 | 5.0 | 15.0 | 0.00 | 0.07 | 0.00 | 61 | 1003.1 |
| 20260509194520 | 68 | 185 | 7.0 | 16.0 | 0.00 | 0.07 | 0.00 | 63 | 1003.1 |
| 20260509193532 | 67 | 203 | 8.0 | 16.0 | 0.00 | 0.07 | 0.00 | 62 | 1003.1 |
| 20260509193002 | 67 | 184 | 8.0 | 18.0 | 0.00 | 0.07 | 0.00 | 61 | 1003.3 |
| 20260509192502 | 67 | 229 | 8.0 | 18.0 | 0.00 | 0.07 | 0.00 | 61 | 1003.2 |
| 20260509192002 | 67 | 209 | 7.0 | 12.0 | 0.00 | 0.07 | 0.00 | 60 | 1003.2 |
| 20260509191712 | 67 | 199 | 7.0 | 16.0 | 0.00 | 0.07 | 0.00 | 61 | 1003.4 |
| 20260509190931 | 67 | 186 | 8.0 | 16.0 | 0.00 | 0.07 | 0.00 | 62 | 1003.5 |
| 20260509190423 | 67 | 179 | 8.0 | 16.0 | 0.00 | 0.07 | 0.00 | 61 | 1003.6 |
| 20260509185914 | 67 | 168 | 7.0 | 14.0 | 0.00 | 0.07 | 0.00 | 61 | 1003.6 |
| 20260509185342 | 68 | 174 | 6.0 | 13.0 | 0.00 | 0.07 | 0.00 | 60 | 1003.8 |
| 20260509184810 | 67 | 173 | 5.0 | 13.0 | 0.00 | 0.07 | 0.00 | 60 | 1003.9 |
| 20260509184240 | 67 | 203 | 4.0 | 12.0 | 0.00 | 0.07 | 0.00 | 58 | 1003.8 |
| 20260509183708 | 68 | 182 | 5.0 | 15.0 | 0.00 | 0.07 | 0.00 | 59 | 1003.8 |
| 20260509183136 | 68 | 184 | 5.0 | 15.0 | 0.00 | 0.07 | 0.00 | 60 | 1003.9 |
| 20260509182558 | 68 | 190 | 4.0 | 10.0 | 0.00 | 0.07 | 0.00 | 61 | 1003.8 |
| 20260509182056 | 68 | 186 | 6.0 | 12.0 | 0.00 | 0.07 | 0.00 | 61 | 1003.7 |
| 20260509181559 | 67 | 190 | 6.0 | 14.0 | 0.00 | 0.07 | 0.00 | 62 | 1003.6 |
| 20260509181047 | 67 | 167 | 5.0 | 14.0 | 0.00 | 0.07 | 0.00 | 61 | 1003.9 |
| 20260509180543 | 67 | 178 | 5.0 | 14.0 | 0.00 | 0.07 | 0.00 | 62 | 1004.1 |
| 20260509180046 | 67 | 171 | 5.0 | 14.0 | 0.00 | 0.07 | 0.00 | 62 | 1004.0 |
| 20260509175520 | 66 | 171 | 6.0 | 12.0 | 0.00 | 0.07 | 0.00 | 66 | 1004.0 |
| 20260509174946 | 66 | 159 | 6.0 | 12.0 | 0.00 | 0.07 | 0.00 | 64 | 1004.0 |
| 20260509174418 | 66 | 175 | 6.0 | 11.0 | 0.00 | 0.07 | 0.00 | 65 | 1004.0 |
| 20260509174106 | 66 | 180 | 5.0 | 12.0 | 0.00 | 0.07 | 0.00 | 63 | 1004.0 |
| 20260509173316 | 66 | 180 | 6.0 | 13.0 | 0.00 | 0.07 | 0.00 | 67 | 1004.0 |
| 20260509172744 | 66 | 178 | 4.0 | 13.0 | 0.00 | 0.07 | 0.00 | 66 | 1004.0 |
| 20260509172212 | 65 | 178 | 5.0 | 12.0 | 0.00 | 0.07 | 0.00 | 67 | 1004.1 |
| 20260509171710 | 65 | 174 | 5.0 | 12.0 | 0.00 | 0.07 | 0.00 | 67 | 1004.1 |
| 20260509171654 | 66 | 196 | 4.0 | 11.0 | 0.00 | 0.07 | 0.00 | 65 | 1004.1 |
| 20260509170644 | 65 | 219 | 4.0 | 11.0 | 0.00 | 0.07 | 0.00 | 66 | 1004.4 |
| 20260509170114 | 65 | 179 | 3.0 | 11.0 | 0.00 | 0.07 | 0.00 | 64 | 1004.4 |
| 20260509165540 | 65 | 180 | 2.0 | 7.0 | 0.00 | 0.07 | 0.00 | 68 | 1004.6 |
| 20260509165012 | 65 | 82 | 4.0 | 11.0 | 0.00 | 0.07 | 0.00 | 68 | 1004.5 |
| 20260509164439 | 64 | 191 | 4.0 | 11.0 | 0.00 | 0.07 | 0.00 | 69 | 1004.5 |
| 20260509163937 | 64 | 170 | 4.0 | 11.0 | 0.00 | 0.07 | 0.00 | 68 | 1004.4 |
| 20260509163430 | 64 | 179 | 4.0 | 10.0 | 0.00 | 0.07 | 0.00 | 68 | 1004.0 |
| 20260509162935 | 63 | 151 | 3.0 | 10.0 | 0.00 | 0.07 | 0.00 | 72 | 1004.3 |
| 20260509162429 | 63 | 199 | 2.0 | 10.0 | 0.00 | 0.07 | 0.00 | 69 | 1004.6 |
| 20260509162158 | 63 | 239 | 2.0 | 5.0 | 0.00 | 0.07 | 0.00 | 73 | 1004.7 |
| 20260509161402 | 63 | 175 | 2.0 | 5.0 | 0.00 | 0.07 | 0.00 | 71 | 1004.9 |
| 20260509160848 | 62 | 310 | 1.0 | 5.0 | 0.00 | 0.07 | 0.00 | 71 | 1004.9 |
| 20260509160352 | 63 | 212 | 1.0 | 5.0 | 0.00 | 0.07 | 0.00 | 73 | 1005.0 |
| 20260509155818 | 62 | 213 | 0.0 | 2.0 | 0.00 | 0.07 | 0.00 | 73 | 1005.0 |
| 20260509155240 | 62 | 211 | 1.0 | 4.0 | 0.00 | 0.07 | 0.00 | 73 | 1005.0 |
| 20260509154654 | 62 | 211 | 2.0 | 9.0 | 0.00 | 0.07 | 0.00 | 74 | 1005.0 |
| 20260509154154 | 62 | 170 | 3.0 | 9.0 | 0.00 | 0.07 | 0.00 | 73 | 1005.0 |
| 20260509153608 | 62 | 175 | 3.0 | 9.0 | 0.00 | 0.07 | 0.00 | 73 | 1005.0 |
| 20260509153323 | 62 | 180 | 2.0 | 7.0 | 0.00 | 0.07 | 0.00 | 72 | 1005.0 |
| 20260509152759 | 62 | 212 | 2.0 | 6.0 | 0.00 | 0.07 | 0.00 | 76 | 1005.0 |
| 20260509152007 | 62 | 204 | 3.0 | 9.0 | 0.00 | 0.07 | 0.00 | 77 | 1004.9 |
| 20260509151506 | 61 | 175 | 4.0 | 10.0 | 0.00 | 0.07 | 0.00 | 80 | 1004.9 |
| 20260509151008 | 61 | 170 | 5.0 | 10.0 | 0.00 | 0.07 | 0.00 | 79 | 1004.7 |
| 20260509150444 | 61 | 165 | 3.0 | 9.0 | 0.00 | 0.07 | 0.00 | 81 | 1004.8 |
| 20260509150218 | 60 | 186 | 2.0 | 9.0 | 0.00 | 0.07 | 0.00 | 84 | 1004.9 |
| 20260509145427 | 59 | 201 | 1.0 | 4.0 | 0.00 | 0.07 | 0.00 | 85 | 1004.9 |
| 20260509144930 | 59 | 199 | 0.0 | 3.0 | 0.00 | 0.07 | 0.00 | 86 | 1004.8 |
| 20260509144419 | 58 | 198 | 0.0 | 2.0 | 0.00 | 0.07 | 0.00 | 87 | 1004.8 |
| 20260509143910 | 58 | 198 | 1.0 | 3.0 | 0.00 | 0.07 | 0.00 | 88 | 1004.9 |
| 20260509143346 | 58 | 198 | 1.0 | 4.0 | 0.00 | 0.07 | 0.00 | 88 | 1004.9 |
| 20260509142819 | 57 | 195 | 1.0 | 4.0 | 0.00 | 0.07 | 0.00 | 87 | 1004.9 |
| 20260509142322 | 57 | 175 | 1.0 | 2.0 | 0.00 | 0.07 | 0.00 | 88 | 1004.8 |
| 20260509141758 | 57 | 175 | 1.0 | 3.0 | 0.00 | 0.07 | 0.00 | 90 | 1004.8 |
| 20260509141258 | 57 | 175 | 0.0 | 3.0 | 0.00 | 0.07 | 0.00 | 90 | 1004.8 |
| 20260509140752 | 57 | 175 | 2.0 | 7.0 | 0.00 | 0.07 | 0.00 | 90 | 1004.7 |
| 20260509140257 | 56 | 174 | 3.0 | 7.0 | 0.00 | 0.07 | 0.00 | 90 | 1004.7 |
| 20260509135720 | 56 | 172 | 2.0 | 7.0 | 0.00 | 0.07 | 0.00 | 92 | 1004.7 |
| 20260509135245 | 56 | 159 | 2.0 | 5.0 | 0.00 | 0.07 | 0.00 | 93 | 1004.8 |
| 20260509134152 | 55 | 192 | 1.0 | 5.0 | 0.00 | 0.07 | 0.00 | 95 | 1004.7 |
| 20260509133652 | 55 | 190 | 1.0 | 5.0 | 0.00 | 0.07 | 0.00 | 95 | 1004.7 |
| 20260509133152 | 55 | 170 | 1.0 | 4.0 | 0.00 | 0.07 | 0.00 | 95 | 1004.7 |
| 20260509132638 | 54 | 170 | 2.0 | 7.0 | 0.00 | 0.07 | 0.00 | 95 | 1004.7 |
| 20260509132334 | 54 | 182 | 1.0 | 7.0 | 0.00 | 0.07 | 0.00 | 95 | 1004.7 |
| 20260509131545 | 54 | 180 | 1.0 | 4.0 | 0.00 | 0.07 | 0.00 | 95 | 1004.8 |
| 20260509131046 | 54 | 178 | 2.0 | 4.0 | 0.00 | 0.07 | 0.00 | 95 | 1004.7 |
| 20260509130456 | 54 | 178 | 2.0 | 4.0 | 0.00 | 0.07 | 0.00 | 96 | 1004.7 |
| 20260509125927 | 54 | 178 | 2.0 | 4.0 | 0.00 | 0.07 | 0.00 | 96 | 1004.8 |
| 20260509125425 | 54 | 179 | 1.0 | 4.0 | 0.00 | 0.07 | 0.00 | 96 | 1004.8 |
| 20260509124852 | 54 | 178 | 1.0 | 5.0 | 0.00 | 0.07 | 0.00 | 96 | 1004.7 |
| 20260509124842 | 54 | 178 | 3.0 | 6.0 | 0.00 | 0.07 | 0.00 | 96 | 1004.7 |
| 20260509123818 | 54 | 178 | 2.0 | 5.0 | 0.00 | 0.07 | 0.00 | 96 | 1004.9 |
| 20260509123245 | 53 | 176 | 2.0 | 5.0 | 0.00 | 0.07 | 0.00 | 97 | 1004.9 |
| 20260509122747 | 53 | 176 | 2.0 | 5.0 | 0.00 | 0.07 | 0.00 | 97 | 1004.9 |
| 20260509122155 | 53 | 176 | 2.0 | 5.0 | 0.00 | 0.07 | 0.00 | 97 | 1005.0 |
| 20260509121650 | 53 | 176 | 3.0 | 5.0 | 0.00 | 0.07 | 0.00 | 97 | 1004.9 |
| 20260509121150 | 53 | 176 | 3.0 | 5.0 | 0.00 | 0.07 | 0.00 | 97 | 1005.0 |
| 20260509120619 | 53 | 176 | 3.0 | 6.0 | 0.00 | 0.07 | 0.00 | 97 | 1005.1 |
| 20260509120114 | 53 | 175 | 3.0 | 6.0 | 0.00 | 0.07 | 0.00 | 97 | 1005.0 |
| 20260509115559 | 53 | 175 | 3.0 | 6.0 | 0.00 | 0.07 | 0.00 | 97 | 1005.1 |
| 20260509115104 | 53 | 176 | 3.0 | 6.0 | 0.00 | 0.07 | 0.00 | 97 | 1005.1 |
| 20260509114637 | 52 | 176 | 3.0 | 5.0 | 0.00 | 0.07 | 0.00 | 97 | 1005.1 |
| 20260509113530 | 52 | 176 | 3.0 | 5.0 | 0.00 | 0.07 | 0.00 | 97 | 1005.1 |
| 20260509113031 | 52 | 176 | 2.0 | 5.0 | 0.00 | 0.07 | 0.00 | 97 | 1005.1 |
| 20260509112725 | 52 | 176 | 2.0 | 3.0 | 0.00 | 0.07 | 0.00 | 97 | 1005.0 |
| 20260509111956 | 52 | 175 | 1.0 | 3.0 | 0.00 | 0.07 | 0.00 | 97 | 1004.9 |
| 20260509111431 | 52 | 175 | 0.0 | 3.0 | 0.00 | 0.07 | 0.00 | 97 | 1004.9 |
| 20260509110927 | 52 | 175 | 1.0 | 3.0 | 0.00 | 0.07 | 0.00 | 97 | 1004.8 |
| 20260509110409 | 52 | 175 | 2.0 | 4.0 | 0.00 | 0.07 | 0.00 | 97 | 1004.7 |
| 20260509110130 | 52 | 175 | 2.0 | 4.0 | 0.00 | 0.07 | 0.00 | 97 | 1004.7 |
| 20260509105354 | 52 | 175 | 2.0 | 3.0 | 0.00 | 0.07 | 0.00 | 97 | 1004.8 |
| 20260509104857 | 52 | 175 | 1.0 | 3.0 | 0.00 | 0.07 | 0.00 | 97 | 1004.7 |
| 20260509104333 | 52 | 175 | 1.0 | 3.0 | 0.00 | 0.07 | 0.00 | 97 | 1004.7 |
| 20260509103828 | 52 | 175 | 0.0 | 3.0 | 0.00 | 0.07 | 0.00 | 97 | 1004.8 |
| 20260509103527 | 52 | 175 | 0.0 | 0.0 | 0.00 | 0.07 | 0.00 | 97 | 1004.8 |
| 20260509103032 | 52 | 175 | 0.0 | 0.0 | 0.00 | 0.07 | 0.00 | 97 | 1004.9 |
| 20260509102252 | 52 | 175 | 0.0 | 0.0 | 0.00 | 0.07 | 0.00 | 97 | 1004.8 |
| 20260509101741 | 52 | 175 | 0.0 | 0.0 | 0.00 | 0.07 | 0.00 | 97 | 1004.8 |
| 20260509101222 | 52 | 175 | 1.0 | 3.0 | 0.00 | 0.07 | 0.00 | 97 | 1004.8 |
| 20260509100717 | 52 | 175 | 2.0 | 3.0 | 0.00 | 0.07 | 0.00 | 97 | 1004.9 |
| 20260509100218 | 52 | 175 | 2.0 | 3.0 | 0.00 | 0.07 | 0.00 | 97 | 1004.9 |
| 20260509095704 | 52 | 175 | 1.0 | 4.0 | 0.00 | 0.07 | 0.00 | 97 | 1004.9 |
| 20260509095155 | 52 | 175 | 0.0 | 4.0 | 0.00 | 0.07 | 0.00 | 96 | 1004.9 |
| 20260509094609 | 52 | 175 | 1.0 | 3.0 | 0.00 | 0.07 | 0.00 | 97 | 1004.9 |
| 20260509094042 | 52 | 175 | 2.0 | 5.0 | 0.00 | 0.07 | 0.00 | 97 | 1004.9 |
| 20260509093521 | 52 | 175 | 2.0 | 5.0 | 0.00 | 0.07 | 0.00 | 97 | 1005.0 |
| 20260509093022 | 52 | 175 | 3.0 | 5.0 | 0.00 | 0.07 | 0.00 | 97 | 1004.9 |
| 20260509092458 | 52 | 175 | 2.0 | 5.0 | 0.00 | 0.07 | 0.00 | 96 | 1005.1 |
| 20260509091944 | 52 | 175 | 2.0 | 4.0 | 0.00 | 0.07 | 0.00 | 96 | 1005.1 |
| 20260509091443 | 52 | 175 | 2.0 | 4.0 | 0.00 | 0.07 | 0.00 | 96 | 1005.2 |
| 20260509090941 | 52 | 175 | 2.0 | 3.0 | 0.00 | 0.07 | 0.00 | 96 | 1005.3 |
| 20260509090706 | 52 | 175 | 1.0 | 3.0 | 0.00 | 0.07 | 0.00 | 96 | 1005.4 |
| 20260509085940 | 52 | 175 | 1.0 | 3.0 | 0.00 | 0.07 | 0.00 | 96 | 1005.3 |
| 20260509085439 | 52 | 175 | 2.0 | 4.0 | 0.00 | 0.07 | 0.00 | 96 | 1005.3 |
| 20260509085155 | 52 | 175 | 2.0 | 4.0 | 0.00 | 0.07 | 0.00 | 96 | 1005.3 |
| 20260509084431 | 52 | 175 | 2.0 | 4.0 | 0.00 | 0.07 | 0.00 | 96 | 1005.3 |
| 20260509083856 | 52 | 175 | 2.0 | 3.0 | 0.00 | 0.07 | 0.00 | 96 | 1005.4 |
| 20260509083332 | 52 | 175 | 2.0 | 3.0 | 0.00 | 0.07 | 0.00 | 96 | 1005.4 |
| 20260509082756 | 52 | 175 | 2.0 | 4.0 | 0.00 | 0.07 | 0.00 | 96 | 1005.4 |
| 20260509082232 | 52 | 175 | 3.0 | 5.0 | 0.00 | 0.07 | 0.00 | 96 | 1005.5 |
| 20260509081726 | 52 | 175 | 3.0 | 4.0 | 0.00 | 0.07 | 0.00 | 96 | 1005.5 |
| 20260509081221 | 52 | 175 | 2.0 | 4.0 | 0.00 | 0.07 | 0.00 | 96 | 1005.5 |
| 20260509080714 | 52 | 175 | 2.0 | 4.0 | 0.00 | 0.07 | 0.00 | 96 | 1005.4 |
| 20260509080213 | 52 | 175 | 2.0 | 4.0 | 0.00 | 0.07 | 0.00 | 96 | 1005.4 |
| 20260509075643 | 52 | 175 | 3.0 | 6.0 | 0.00 | 0.07 | 0.00 | 96 | 1005.3 |
| 20260509075124 | 52 | 175 | 3.0 | 6.0 | 0.00 | 0.07 | 0.00 | 96 | 1005.3 |
| 20260509074611 | 52 | 180 | 2.0 | 5.0 | 0.00 | 0.07 | 0.00 | 96 | 1005.3 |
| 20260509074114 | 52 | 180 | 3.0 | 7.0 | 0.00 | 0.07 | 0.00 | 96 | 1005.3 |
| 20260509073528 | 52 | 179 | 3.0 | 7.0 | 0.00 | 0.07 | 0.00 | 96 | 1005.3 |
| 20260509073001 | 52 | 183 | 3.0 | 6.0 | 0.00 | 0.07 | 0.00 | 96 | 1005.4 |
| 20260509072502 | 52 | 192 | 3.0 | 6.0 | 0.00 | 0.07 | 0.00 | 96 | 1005.6 |
| 20260509072004 | 52 | 187 | 3.0 | 5.0 | 0.00 | 0.07 | 0.00 | 96 | 1005.5 |
| 20260509071455 | 52 | 188 | 3.0 | 4.0 | 0.00 | 0.07 | 0.00 | 96 | 1005.5 |
| 20260509070958 | 52 | 188 | 3.0 | 5.0 | 0.00 | 0.07 | 0.00 | 96 | 1005.6 |
| 20260509070421 | 52 | 190 | 3.0 | 6.0 | 0.00 | 0.07 | 0.00 | 96 | 1005.6 |
| 20260509065848 | 52 | 190 | 3.0 | 6.0 | 0.00 | 0.07 | 0.00 | 96 | 1005.7 |
| 20260509065317 | 52 | 187 | 2.0 | 6.0 | 0.00 | 0.07 | 0.00 | 96 | 1005.6 |
| 20260509064803 | 52 | 188 | 2.0 | 4.0 | 0.00 | 0.07 | 0.00 | 96 | 1005.8 |
| 20260509064306 | 52 | 194 | 3.0 | 9.0 | 0.00 | 0.07 | 0.00 | 96 | 1005.8 |
| 20260509063755 | 52 | 194 | 4.0 | 9.0 | 0.00 | 0.07 | 0.00 | 96 | 1005.8 |
| 20260509063300 | 52 | 181 | 4.0 | 7.0 | 0.00 | 0.07 | 0.00 | 96 | 1005.9 |
| 20260509062749 | 52 | 190 | 3.0 | 7.0 | 0.00 | 0.07 | 0.00 | 96 | 1005.9 |
| 20260509062241 | 52 | 189 | 3.0 | 6.0 | 0.00 | 0.07 | 0.00 | 96 | 1005.9 |
| 20260509061740 | 51 | 190 | 3.0 | 6.0 | 0.00 | 0.07 | 0.00 | 96 | 1005.9 |
| 20260509061235 | 51 | 175 | 3.0 | 5.0 | 0.00 | 0.07 | 0.00 | 96 | 1006.0 |
| 20260509060657 | 51 | 175 | 3.0 | 5.0 | 0.00 | 0.07 | 0.00 | 96 | 1006.1 |
| 20260509060154 | 51 | 175 | 3.0 | 6.0 | 0.00 | 0.07 | 0.00 | 96 | 1006.0 |
| 20260509055656 | 52 | 163 | 3.0 | 6.0 | 0.00 | 0.07 | 0.00 | 96 | 1006.1 |
| 20260509055139 | 52 | 163 | 4.0 | 6.0 | 0.00 | 0.07 | 0.00 | 96 | 1006.1 |
| 20260509054833 | 51 | 175 | 4.0 | 7.0 | 0.00 | 0.07 | 0.00 | 96 | 1006.0 |
| 20260509054055 | 51 | 173 | 3.0 | 6.0 | 0.00 | 0.07 | 0.00 | 96 | 1006.1 |
| 20260509053551 | 51 | 173 | 3.0 | 5.0 | 0.00 | 0.07 | 0.00 | 96 | 1006.3 |
| 20260509053017 | 51 | 173 | 3.0 | 5.0 | 0.00 | 0.07 | 0.00 | 96 | 1006.4 |
| 20260509052509 | 51 | 173 | 3.0 | 6.0 | 0.00 | 0.07 | 0.00 | 96 | 1006.4 |
| 20260509052202 | 51 | 175 | 4.0 | 6.0 | 0.00 | 0.07 | 0.00 | 96 | 1006.4 |
| 20260509051407 | 51 | 175 | 3.0 | 5.0 | 0.00 | 0.07 | 0.00 | 96 | 1006.4 |
| 20260509051125 | 51 | 175 | 3.0 | 6.0 | 0.00 | 0.07 | 0.00 | 96 | 1006.3 |
| 20260509050405 | 51 | 175 | 3.0 | 6.0 | 0.00 | 0.07 | 0.00 | 96 | 1006.4 |
| 20260509045907 | 51 | 175 | 2.0 | 6.0 | 0.00 | 0.07 | 0.00 | 96 | 1006.4 |
| 20260509045635 | 51 | 175 | 3.0 | 4.0 | 0.00 | 0.07 | 0.00 | 96 | 1006.4 |
| 20260509044837 | 51 | 175 | 4.0 | 7.0 | 0.00 | 0.07 | 0.00 | 96 | 1006.5 |
| 20260509044301 | 51 | 173 | 4.0 | 10.0 | 0.00 | 0.07 | 0.00 | 96 | 1006.5 |
| 20260509043729 | 51 | 173 | 4.0 | 10.0 | 0.00 | 0.07 | 0.00 | 96 | 1006.5 |
| 20260509043227 | 51 | 164 | 3.0 | 6.0 | 0.00 | 0.07 | 0.00 | 96 | 1006.6 |
| 20260509042721 | 51 | 163 | 2.0 | 4.0 | 0.00 | 0.07 | 0.00 | 96 | 1006.7 |
| 20260509042223 | 51 | 163 | 3.0 | 7.0 | 0.00 | 0.07 | 0.00 | 96 | 1006.7 |
| 20260509041653 | 51 | 160 | 4.0 | 6.0 | 0.00 | 0.07 | 0.00 | 96 | 1006.8 |
| 20260509041129 | 51 | 156 | 4.0 | 6.0 | 0.00 | 0.07 | 0.00 | 96 | 1006.8 |
| 20260509040625 | 51 | 155 | 3.0 | 5.0 | 0.00 | 0.07 | 0.00 | 96 | 1007.0 |
| 20260509040130 | 51 | 150 | 2.0 | 4.0 | 0.00 | 0.07 | 0.00 | 96 | 1007.0 |
| 20260509035607 | 51 | 150 | 3.0 | 4.0 | 0.00 | 0.07 | 0.07 | 96 | 1007.2 |
| 20260509035029 | 51 | 150 | 3.0 | 5.0 | 0.00 | 0.07 | 0.07 | 96 | 1007.1 |
| 20260509034513 | 51 | 148 | 3.0 | 5.0 | 0.00 | 0.07 | 0.07 | 96 | 1007.2 |
| 20260509033953 | 51 | 147 | 3.0 | 6.0 | 0.00 | 0.07 | 0.07 | 96 | 1007.3 |
| 20260509033449 | 51 | 147 | 4.0 | 6.0 | 0.00 | 0.07 | 0.07 | 96 | 1007.3 |
| 20260509032952 | 51 | 170 | 3.0 | 6.0 | 0.00 | 0.07 | 0.07 | 96 | 1007.3 |
| 20260509032419 | 51 | 167 | 3.0 | 5.0 | 0.00 | 0.07 | 0.07 | 96 | 1007.4 |
| 20260509031849 | 51 | 167 | 1.0 | 5.0 | 0.00 | 0.07 | 0.07 | 96 | 1007.4 |
| 20260509031325 | 51 | 169 | 1.0 | 5.0 | 0.00 | 0.07 | 0.07 | 96 | 1007.6 |
| 20260509031047 | 51 | 168 | 3.0 | 5.0 | 0.00 | 0.07 | 0.07 | 96 | 1007.4 |
| 20260509030310 | 51 | 168 | 2.0 | 5.0 | 0.00 | 0.07 | 0.07 | 96 | 1007.6 |
| 20260509025753 | 51 | 168 | 2.0 | 5.0 | 0.00 | 0.07 | 0.07 | 96 | 1007.4 |
| 20260509025256 | 51 | 168 | 4.0 | 6.0 | 0.00 | 0.07 | 0.07 | 96 | 1007.6 |
| 20260509024746 | 51 | 168 | 4.0 | 7.0 | 0.00 | 0.07 | 0.07 | 96 | 1007.7 |
| 20260509024249 | 51 | 184 | 3.0 | 7.0 | 0.00 | 0.07 | 0.07 | 96 | 1007.7 |
| 20260509023725 | 51 | 200 | 3.0 | 5.0 | 0.00 | 0.07 | 0.07 | 96 | 1007.7 |
| 20260509023223 | 51 | 202 | 3.0 | 5.0 | 0.00 | 0.07 | 0.07 | 96 | 1007.7 |
| 20260509022707 | 51 | 173 | 3.0 | 4.0 | 0.00 | 0.07 | 0.07 | 96 | 1007.7 |
| 20260509022205 | 51 | 173 | 3.0 | 5.0 | 0.00 | 0.07 | 0.07 | 96 | 1007.7 |
| 20260509021705 | 51 | 173 | 3.0 | 7.0 | 0.00 | 0.07 | 0.07 | 96 | 1007.7 |
| 20260509021356 | 51 | 173 | 3.0 | 7.0 | 0.00 | 0.07 | 0.07 | 96 | 1007.6 |
| 20260509020645 | 51 | 178 | 4.0 | 7.0 | 0.00 | 0.07 | 0.07 | 96 | 1007.6 |
| 20260509020119 | 51 | 178 | 3.0 | 7.0 | 0.00 | 0.07 | 0.07 | 96 | 1007.7 |
| 20260509015624 | 51 | 182 | 3.0 | 6.0 | 0.00 | 0.07 | 0.07 | 96 | 1007.7 |
| 20260509015055 | 51 | 182 | 4.0 | 6.0 | 0.00 | 0.07 | 0.07 | 96 | 1007.7 |
| 20260509014555 | 51 | 184 | 4.0 | 7.0 | 0.01 | 0.07 | 0.07 | 96 | 1007.7 |
| 20260509014027 | 51 | 181 | 4.0 | 7.0 | 0.01 | 0.07 | 0.07 | 96 | 1007.7 |
| 20260509013503 | 51 | 176 | 3.0 | 7.0 | 0.01 | 0.07 | 0.07 | 96 | 1007.8 |
| 20260509012959 | 51 | 175 | 3.0 | 7.0 | 0.02 | 0.07 | 0.07 | 96 | 1007.8 |
| 20260509012656 | 51 | 177 | 3.0 | 5.0 | 0.02 | 0.07 | 0.07 | 96 | 1007.8 |
| 20260509011937 | 51 | 178 | 3.0 | 4.0 | 0.03 | 0.07 | 0.07 | 96 | 1007.7 |
| 20260509011630 | 51 | 179 | 2.0 | 4.0 | 0.04 | 0.07 | 0.07 | 95 | 1007.6 |
| 20260509010906 | 51 | 179 | 2.0 | 5.0 | 0.05 | 0.07 | 0.07 | 95 | 1007.7 |
| 20260509010316 | 51 | 179 | 2.0 | 5.0 | 0.05 | 0.07 | 0.07 | 95 | 1007.6 |
| 20260509005742 | 51 | 179 | 2.0 | 4.0 | 0.05 | 0.07 | 0.07 | 95 | 1007.6 |
| 20260509005432 | 51 | 179 | 2.0 | 4.0 | 0.05 | 0.07 | 0.07 | 95 | 1007.6 |
| 20260509004713 | 51 | 179 | 2.0 | 4.0 | 0.06 | 0.07 | 0.07 | 95 | 1007.6 |
| 20260509004151 | 51 | 179 | 1.0 | 3.0 | 0.05 | 0.06 | 0.06 | 94 | 1007.6 |
| 20260509003654 | 51 | 179 | 1.0 | 2.0 | 0.05 | 0.06 | 0.06 | 94 | 1007.7 |
| 20260509003332 | 51 | 179 | 1.0 | 3.0 | 0.05 | 0.05 | 0.05 | 94 | 1007.6 |
| 20260509002520 | 51 | 179 | 0.0 | 3.0 | 0.05 | 0.05 | 0.05 | 94 | 1007.6 |
| 20260509002202 | 51 | 179 | 0.0 | 0.0 | 0.04 | 0.04 | 0.04 | 94 | 1007.6 |
| 20260509001643 | 51 | 179 | 0.0 | 0.0 | 0.03 | 0.03 | 0.03 | 93 | 1007.7 |
| 20260509001049 | 51 | 179 | 0.0 | 0.0 | 0.02 | 0.02 | 0.02 | 93 | 1007.6 |
| 20260509000307 | 51 | 179 | 0.0 | 2.0 | 0.02 | 0.02 | 0.02 | 93 | 1007.6 |
| 20260508235753 | 51 | 179 | 1.0 | 3.0 | 0.02 | 0.02 | 0.02 | 92 | 1007.6 |
| 20260508235205 | 52 | 179 | 1.0 | 4.0 | 0.02 | 0.02 | 0.02 | 92 | 1007.6 |
| 20260508234638 | 52 | 179 | 1.0 | 4.0 | 0.01 | 0.01 | 0.01 | 91 | 1007.7 |
| 20260508234141 | 52 | 179 | 2.0 | 4.0 | 0.01 | 0.01 | 0.01 | 90 | 1007.6 |
| 20260508233609 | 52 | 179 | 2.0 | 5.0 | 0.01 | 0.01 | 0.01 | 90 | 1007.7 |
| 20260508233111 | 53 | 179 | 3.0 | 5.0 | 0.00 | 0.00 | 0.00 | 89 | 1007.7 |
| 20260508232545 | 53 | 178 | 3.0 | 5.0 | 0.00 | 0.00 | 0.00 | 89 | 1007.4 |
| 20260508232041 | 53 | 178 | 2.0 | 5.0 | 0.00 | 0.00 | 0.00 | 88 | 1007.6 |
| 20260508231504 | 53 | 178 | 2.0 | 4.0 | 0.00 | 0.00 | 0.00 | 88 | 1007.6 |
| 20260508231008 | 53 | 178 | 2.0 | 3.0 | 0.00 | 0.00 | 0.00 | 88 | 1007.6 |
| 20260508230703 | 53 | 178 | 1.0 | 4.0 | 0.00 | 0.00 | 0.00 | 87 | 1007.7 |
| 20260508225940 | 54 | 178 | 0.0 | 3.0 | 0.00 | 0.00 | 0.00 | 87 | 1007.7 |
| 20260508225628 | 54 | 178 | 1.0 | 4.0 | 0.00 | 0.00 | 0.00 | 86 | 1007.6 |